Time,TemperatureF,DewpointF,PressureIn,WindDirection,WindDirectionDegrees,WindSpeedMPH,WindSpeedGustMPH,Humidity,HourlyPrecipIn,Conditions,Clouds,dailyrainin,SoftwareType,DateUTC
2013-04-17 00:02:00,30.0,29.0,-100.00,NNW,340,7.0,11.0,95,-99.99,,,-99.99,,2013-04-17 05:02:00,
2013-04-17 00:12:00,30.0,29.0,-100.00,NNW,340,7.0,11.0,95,-99.99,,,-99.99,,2013-04-17 05:12:00,
2013-04-17 00:22:00,30.0,29.0,-100.00,NNW,340,7.0,11.0,95,-99.99,,,-99.99,,2013-04-17 05:22:00,
2013-04-17 00:32:00,30.0,29.0,-100.00,NNW,340,4.0,7.0,96,-99.99,,,-99.99,,2013-04-17 05:32:00,
2013-04-17 00:43:00,30.0,29.0,-100.00,NNW,340,4.0,7.0,96,-99.99,,,-99.99,,2013-04-17 05:43:00,
2013-04-17 00:52:00,30.0,29.0,-100.00,NNW,340,4.0,7.0,96,-99.99,,,-99.99,,2013-04-17 05:52:00,
2013-04-17 01:02:00,30.0,29.0,-100.00,NW,325,5.0,6.0,96,-99.99,,,-99.99,,2013-04-17 06:02:00,
2013-04-17 01:12:00,30.0,29.0,-100.00,NW,325,5.0,6.0,96,-99.99,,,-99.99,,2013-04-17 06:12:00,
2013-04-17 01:22:00,30.0,29.0,-100.00,NW,325,5.0,6.0,96,-99.99,,,-99.99,,2013-04-17 06:22:00,
2013-04-17 01:32:00,30.0,29.0,-100.00,NW,305,4.0,6.0,97,-99.99,,,-99.99,,2013-04-17 06:32:00,
2013-04-17 01:42:00,30.0,29.0,-100.00,NW,305,4.0,6.0,97,-99.99,,,-99.99,,2013-04-17 06:42:00,
2013-04-17 01:52:00,30.0,29.0,-100.00,NW,305,4.0,6.0,97,-99.99,,,-99.99,,2013-04-17 06:52:00,
2013-04-17 02:02:00,30.0,29.0,-100.00,WNW,290,4.0,6.0,97,-99.99,,,-99.99,,2013-04-17 07:02:00,
2013-04-17 02:12:00,30.0,29.0,-100.00,WNW,290,4.0,6.0,97,-99.99,,,-99.99,,2013-04-17 07:12:00,
2013-04-17 02:22:00,30.0,29.0,-100.00,WNW,290,4.0,6.0,97,-99.99,,,-99.99,,2013-04-17 07:22:00,
2013-04-17 02:32:00,30.0,29.0,-100.00,WNW,300,6.0,7.0,98,-99.99,,,-99.99,,2013-04-17 07:32:00,
2013-04-17 02:42:00,30.0,29.0,-100.00,WNW,300,6.0,7.0,98,-99.99,,,-99.99,,2013-04-17 07:42:00,
2013-04-17 02:52:00,30.0,29.0,-100.00,WNW,300,6.0,7.0,98,-99.99,,,-99.99,,2013-04-17 07:52:00,
2013-04-17 03:02:00,29.0,29.0,-100.00,WNW,285,6.0,7.0,99,-99.99,,,-99.99,,2013-04-17 08:02:00,
2013-04-17 03:12:00,29.0,29.0,-100.00,WNW,285,6.0,7.0,99,-99.99,,,-99.99,,2013-04-17 08:12:00,
2013-04-17 03:22:00,29.0,29.0,-100.00,WNW,285,6.0,7.0,99,-99.99,,,-99.99,,2013-04-17 08:22:00,
2013-04-17 03:32:00,29.0,29.0,-100.00,West,270,5.0,7.0,99,-99.99,,,-99.99,,2013-04-17 08:32:00,
2013-04-17 03:42:00,29.0,29.0,-100.00,West,270,5.0,7.0,99,-99.99,,,-99.99,,2013-04-17 08:42:00,
2013-04-17 03:52:00,29.0,29.0,-100.00,West,270,5.0,7.0,99,-99.99,,,-99.99,,2013-04-17 08:52:00,
2013-04-17 04:02:00,29.0,28.0,-100.00,NW,305,7.0,9.0,98,-99.99,,,-99.99,,2013-04-17 09:02:00,
2013-04-17 04:12:00,29.0,28.0,-100.00,NW,305,7.0,9.0,98,-99.99,,,-99.99,,2013-04-17 09:12:00,
2013-04-17 04:22:00,29.0,28.0,-100.00,NW,305,7.0,9.0,98,-99.99,,,-99.99,,2013-04-17 09:22:00,
2013-04-17 04:33:00,29.0,29.0,-100.00,NW,320,6.0,9.0,98,-99.99,,,-99.99,,2013-04-17 09:33:00,
2013-04-17 04:42:00,29.0,29.0,-100.00,NW,320,6.0,9.0,98,-99.99,,,-99.99,,2013-04-17 09:42:00,
2013-04-17 04:52:00,29.0,29.0,-100.00,NW,320,6.0,9.0,98,-99.99,,,-99.99,,2013-04-17 09:52:00,
2013-04-17 05:02:00,29.0,29.0,-100.00,NW,320,7.0,9.0,98,-99.99,,,-99.99,,2013-04-17 10:02:00,
2013-04-17 05:12:00,29.0,29.0,-100.00,NW,320,7.0,9.0,98,-99.99,,,-99.99,,2013-04-17 10:12:00,
2013-04-17 05:23:00,29.0,29.0,-100.00,NW,320,7.0,9.0,98,-99.99,,,-99.99,,2013-04-17 10:23:00,
2013-04-17 05:32:00,29.0,29.0,-100.00,NNW,335,4.0,7.0,98,-99.99,,,-99.99,,2013-04-17 10:32:00,
2013-04-17 05:43:00,29.0,29.0,-100.00,NNW,335,4.0,7.0,98,-99.99,,,-99.99,,2013-04-17 10:43:00,
2013-04-17 05:53:00,29.0,29.0,-100.00,NNW,335,4.0,7.0,98,-99.99,,,-99.99,,2013-04-17 10:53:00,
2013-04-17 06:02:00,29.0,29.0,-100.00,NW,325,3.0,4.0,98,-99.99,,,-99.99,,2013-04-17 11:02:00,
2013-04-17 06:12:00,29.0,29.0,-100.00,NW,325,3.0,4.0,98,-99.99,,,-99.99,,2013-04-17 11:12:00,
2013-04-17 06:22:00,29.0,29.0,-100.00,NW,325,3.0,4.0,98,-99.99,,,-99.99,,2013-04-17 11:22:00,
2013-04-17 06:32:00,29.0,29.0,-100.00,WNW,290,0.0,3.0,98,-99.99,,,-99.99,,2013-04-17 11:32:00,
2013-04-17 06:42:00,29.0,29.0,-100.00,WNW,290,0.0,3.0,98,-99.99,,,-99.99,,2013-04-17 11:42:00,
2013-04-17 06:52:00,29.0,29.0,-100.00,WNW,290,0.0,3.0,98,-99.99,,,-99.99,,2013-04-17 11:52:00,
2013-04-17 07:02:00,29.0,29.0,-100.00,NW,320,0.0,1.0,98,-99.99,,,-99.99,,2013-04-17 12:02:00,
2013-04-17 07:12:00,29.0,29.0,-100.00,NW,320,0.0,1.0,98,-99.99,,,-99.99,,2013-04-17 12:12:00,
2013-04-17 07:22:00,29.0,29.0,-100.00,NW,320,0.0,1.0,98,-99.99,,,-99.99,,2013-04-17 12:22:00,
2013-04-17 07:32:00,29.0,29.0,-100.00,WSW,240,0.0,1.0,99,-99.99,,,-99.99,,2013-04-17 12:32:00,
2013-04-17 07:42:00,29.0,29.0,-100.00,WSW,240,0.0,1.0,99,-99.99,,,-99.99,,2013-04-17 12:42:00,
2013-04-17 07:52:00,29.0,29.0,-100.00,WSW,240,0.0,1.0,99,-99.99,,,-99.99,,2013-04-17 12:52:00,
2013-04-17 08:02:00,29.0,29.0,-100.00,WNW,300,4.0,5.0,99,-99.99,,,-99.99,,2013-04-17 13:02:00,
2013-04-17 08:12:00,29.0,29.0,-100.00,WNW,300,4.0,5.0,99,-99.99,,,-99.99,,2013-04-17 13:12:00,
2013-04-17 08:22:00,29.0,29.0,-100.00,WNW,300,4.0,5.0,99,-99.99,,,-99.99,,2013-04-17 13:22:00,
2013-04-17 08:32:00,29.0,29.0,-100.00,WNW,300,2.0,3.0,99,-99.99,,,-99.99,,2013-04-17 13:32:00,
2013-04-17 08:42:00,29.0,29.0,-100.00,WNW,300,2.0,3.0,99,-99.99,,,-99.99,,2013-04-17 13:42:00,
2013-04-17 08:52:00,29.0,29.0,-100.00,WNW,300,2.0,3.0,99,-99.99,,,-99.99,,2013-04-17 13:52:00,
2013-04-17 09:02:00,30.0,30.0,-100.00,WNW,300,2.0,3.0,99,-99.99,,,-99.99,,2013-04-17 14:02:00,
2013-04-17 09:12:00,30.0,30.0,-100.00,WNW,300,2.0,3.0,99,-99.99,,,-99.99,,2013-04-17 14:12:00,
2013-04-17 09:22:00,30.0,30.0,-100.00,WNW,300,2.0,3.0,99,-99.99,,,-99.99,,2013-04-17 14:22:00,
2013-04-17 09:32:00,30.0,30.0,-100.00,WNW,300,2.0,3.0,99,-99.99,,,-99.99,,2013-04-17 14:32:00,
2013-04-17 10:02:00,31.0,31.0,-100.00,West,280,2.0,3.0,99,-99.99,,,-99.99,,2013-04-17 15:02:00,
2013-04-17 10:12:00,31.0,31.0,-100.00,West,280,2.0,3.0,99,-99.99,,,-99.99,,2013-04-17 15:12:00,
2013-04-17 10:22:00,31.0,31.0,-100.00,West,280,2.0,3.0,99,-99.99,,,-99.99,,2013-04-17 15:22:00,
2013-04-17 10:33:00,31.0,31.0,-100.00,WSW,255,1.0,2.0,99,-99.99,,,-99.99,,2013-04-17 15:33:00,
2013-04-17 10:43:00,31.0,31.0,-100.00,WSW,255,1.0,2.0,99,-99.99,,,-99.99,,2013-04-17 15:43:00,
2013-04-17 10:53:00,31.0,31.0,-100.00,WSW,255,1.0,2.0,99,-99.99,,,-99.99,,2013-04-17 15:53:00,
2013-04-17 11:03:00,32.0,32.0,-100.00,WNW,285,1.0,2.0,99,-99.99,,,-99.99,,2013-04-17 16:03:00,
2013-04-17 11:12:00,32.0,32.0,-100.00,WNW,285,1.0,2.0,99,-99.99,,,-99.99,,2013-04-17 16:12:00,
2013-04-17 11:22:00,32.0,32.0,-100.00,WNW,285,1.0,2.0,99,-99.99,,,-99.99,,2013-04-17 16:22:00,
2013-04-17 11:32:00,32.0,32.0,-100.00,WNW,300,4.0,6.0,99,-99.99,,,-99.99,,2013-04-17 16:32:00,
2013-04-17 11:42:00,32.0,32.0,-100.00,WNW,300,4.0,6.0,99,-99.99,,,-99.99,,2013-04-17 16:42:00,
2013-04-17 11:52:00,32.0,32.0,-100.00,WNW,300,4.0,6.0,99,-99.99,,,-99.99,,2013-04-17 16:52:00,
2013-04-17 12:02:00,33.0,33.0,-100.00,WNW,300,4.0,6.0,99,-99.99,,,-99.99,,2013-04-17 17:02:00,
2013-04-17 12:12:00,33.0,33.0,-100.00,WNW,300,4.0,6.0,99,-99.99,,,-99.99,,2013-04-17 17:12:00,
2013-04-17 12:22:00,33.0,33.0,-100.00,WNW,300,4.0,6.0,99,-99.99,,,-99.99,,2013-04-17 17:22:00,
2013-04-17 12:33:00,35.0,35.0,-100.00,North,0,3.0,7.0,99,-99.99,,,-99.99,,2013-04-17 17:33:00,
2013-04-17 12:42:00,35.0,35.0,-100.00,North,0,3.0,7.0,99,-99.99,,,-99.99,,2013-04-17 17:42:00,
2013-04-17 12:52:00,35.0,35.0,-100.00,North,0,3.0,7.0,99,-99.99,,,-99.99,,2013-04-17 17:52:00,
2013-04-17 13:02:00,34.0,33.0,-100.00,North,350,4.0,7.0,98,-99.99,,,-99.99,,2013-04-17 18:02:00,
2013-04-17 13:12:00,34.0,33.0,-100.00,North,350,4.0,7.0,98,-99.99,,,-99.99,,2013-04-17 18:12:00,
2013-04-17 13:22:00,34.0,33.0,-100.00,North,350,4.0,7.0,98,-99.99,,,-99.99,,2013-04-17 18:22:00,
2013-04-17 13:32:00,34.0,34.0,-100.00,NNW,340,4.0,7.0,98,-99.99,,,-99.99,,2013-04-17 18:32:00,
2013-04-17 13:42:00,34.0,34.0,-100.00,NNW,340,4.0,7.0,98,-99.99,,,-99.99,,2013-04-17 18:42:00,
2013-04-17 13:52:00,34.0,34.0,-100.00,NNW,340,4.0,7.0,98,-99.99,,,-99.99,,2013-04-17 18:52:00,
2013-04-17 14:02:00,35.0,33.0,-100.00,North,10,7.0,10.0,94,-99.99,,,-99.99,,2013-04-17 19:02:00,
2013-04-17 14:12:00,35.0,33.0,-100.00,North,10,7.0,10.0,94,-99.99,,,-99.99,,2013-04-17 19:12:00,
2013-04-17 14:22:00,35.0,33.0,-100.00,North,10,7.0,10.0,94,-99.99,,,-99.99,,2013-04-17 19:22:00,
2013-04-17 14:32:00,36.0,33.0,-100.00,NNW,330,8.0,11.0,90,-99.99,,,-99.99,,2013-04-17 19:32:00,
2013-04-17 14:42:00,36.0,33.0,-100.00,NNW,330,8.0,11.0,90,-99.99,,,-99.99,,2013-04-17 19:42:00,
2013-04-17 14:52:00,36.0,33.0,-100.00,NNW,330,8.0,11.0,90,-99.99,,,-99.99,,2013-04-17 19:52:00,
2013-04-17 15:02:00,35.0,32.0,-100.00,North,355,9.0,12.0,88,-99.99,,,-99.99,,2013-04-17 20:02:00,
2013-04-17 15:12:00,35.0,32.0,-100.00,North,355,9.0,12.0,88,-99.99,,,-99.99,,2013-04-17 20:12:00,
2013-04-17 15:22:00,35.0,32.0,-100.00,North,355,9.0,12.0,88,-99.99,,,-99.99,,2013-04-17 20:22:00,
2013-04-17 15:32:00,34.0,32.0,-100.00,North,0,9.0,12.0,92,-99.99,,,-99.99,,2013-04-17 20:32:00,
2013-04-17 15:42:00,34.0,32.0,-100.00,North,0,9.0,12.0,92,-99.99,,,-99.99,,2013-04-17 20:42:00,
2013-04-17 15:52:00,34.0,32.0,-100.00,North,0,9.0,12.0,92,-99.99,,,-99.99,,2013-04-17 20:52:00,
2013-04-17 16:02:00,34.0,32.0,-100.00,North,0,9.0,12.0,92,-99.99,,,-99.99,,2013-04-17 21:02:00,
2013-04-17 16:33:00,35.0,32.0,-100.00,North,0,9.0,12.0,91,-99.99,,,-99.99,,2013-04-17 21:33:00,
2013-04-17 16:43:00,35.0,32.0,-100.00,North,0,9.0,12.0,91,-99.99,,,-99.99,,2013-04-17 21:43:00,
2013-04-17 16:53:00,35.0,32.0,-100.00,North,0,9.0,12.0,91,-99.99,,,-99.99,,2013-04-17 21:53:00,
2013-04-17 17:02:00,36.0,33.0,-100.00,NNE,15,7.0,11.0,91,-99.99,,,-99.99,,2013-04-17 22:02:00,
2013-04-17 17:12:00,36.0,33.0,-100.00,NNE,15,7.0,11.0,91,-99.99,,,-99.99,,2013-04-17 22:12:00,
2013-04-17 17:22:00,36.0,33.0,-100.00,NNE,15,7.0,11.0,91,-99.99,,,-99.99,,2013-04-17 22:22:00,
2013-04-17 17:33:00,35.0,31.0,-100.00,North,0,11.0,15.0,86,-99.99,,,-99.99,,2013-04-17 22:33:00,
2013-04-17 17:43:00,35.0,31.0,-100.00,North,0,11.0,15.0,86,-99.99,,,-99.99,,2013-04-17 22:43:00,
2013-04-17 17:53:00,35.0,31.0,-100.00,North,0,11.0,15.0,86,-99.99,,,-99.99,,2013-04-17 22:53:00,
2013-04-17 18:02:00,35.0,31.0,-100.00,North,0,11.0,15.0,86,-99.99,,,-99.99,,2013-04-17 23:02:00,
2013-04-17 19:02:00,35.0,30.0,-100.00,North,0,9.0,12.0,81,-99.99,,,-99.99,,2013-04-18 00:02:00,
2013-04-17 19:12:00,35.0,30.0,-100.00,North,0,9.0,12.0,81,-99.99,,,-99.99,,2013-04-18 00:12:00,
2013-04-17 19:22:00,35.0,30.0,-100.00,North,0,9.0,12.0,81,-99.99,,,-99.99,,2013-04-18 00:22:00,
2013-04-17 19:32:00,35.0,30.0,-100.00,NNW,340,10.0,14.0,83,-99.99,,,-99.99,,2013-04-18 00:32:00,
2013-04-17 19:43:00,35.0,30.0,-100.00,NNW,340,10.0,14.0,83,-99.99,,,-99.99,,2013-04-18 00:43:00,
2013-04-17 19:52:00,35.0,30.0,-100.00,NNW,340,10.0,14.0,83,-99.99,,,-99.99,,2013-04-18 00:52:00,
2013-04-17 20:02:00,34.0,31.0,-100.00,NNW,345,11.0,16.0,87,-99.99,,,-99.99,,2013-04-18 01:02:00,
2013-04-17 20:12:00,34.0,31.0,-100.00,NNW,345,11.0,16.0,87,-99.99,,,-99.99,,2013-04-18 01:12:00,
2013-04-17 20:22:00,34.0,31.0,-100.00,NNW,345,11.0,16.0,87,-99.99,,,-99.99,,2013-04-18 01:22:00,
2013-04-17 20:32:00,33.0,31.0,-100.00,NNW,340,9.0,14.0,90,-99.99,,,-99.99,,2013-04-18 01:32:00,
2013-04-17 20:42:00,33.0,31.0,-100.00,NNW,340,9.0,14.0,90,-99.99,,,-99.99,,2013-04-18 01:42:00,
2013-04-17 20:52:00,33.0,31.0,-100.00,NNW,340,9.0,14.0,90,-99.99,,,-99.99,,2013-04-18 01:52:00,
2013-04-17 21:02:00,32.0,31.0,-100.00,NNW,340,12.0,17.0,93,-99.99,,,-99.99,,2013-04-18 02:02:00,
2013-04-17 21:12:00,32.0,31.0,-100.00,NNW,340,12.0,17.0,93,-99.99,,,-99.99,,2013-04-18 02:12:00,
2013-04-17 21:22:00,32.0,31.0,-100.00,NNW,340,12.0,17.0,93,-99.99,,,-99.99,,2013-04-18 02:22:00,
2013-04-17 21:32:00,32.0,30.0,-100.00,North,350,10.0,16.0,93,-99.99,,,-99.99,,2013-04-18 02:32:00,
2013-04-17 21:42:00,32.0,30.0,-100.00,North,350,10.0,16.0,93,-99.99,,,-99.99,,2013-04-18 02:42:00,
2013-04-17 21:52:00,32.0,30.0,-100.00,North,350,10.0,16.0,93,-99.99,,,-99.99,,2013-04-18 02:52:00,
2013-04-17 22:02:00,32.0,30.0,-100.00,North,350,10.0,16.0,93,-99.99,,,-99.99,,2013-04-18 03:02:00,
2013-04-17 23:03:00,31.0,29.0,-100.00,NNW,345,12.0,16.0,93,-99.99,,,-99.99,,2013-04-18 04:03:00,
2013-04-17 23:13:00,31.0,29.0,-100.00,NNW,345,12.0,16.0,93,-99.99,,,-99.99,,2013-04-18 04:13:00,
2013-04-17 23:23:00,31.0,29.0,-100.00,NNW,345,12.0,16.0,93,-99.99,,,-99.99,,2013-04-18 04:23:00,
2013-04-17 23:33:00,31.0,30.0,-100.00,NNW,340,9.0,15.0,95,-99.99,,,-99.99,,2013-04-18 04:33:00,
2013-04-17 23:43:00,31.0,30.0,-100.00,NNW,340,9.0,15.0,95,-99.99,,,-99.99,,2013-04-18 04:43:00,
2013-04-17 23:53:00,31.0,30.0,-100.00,NNW,340,9.0,15.0,95,-99.99,,,-99.99,,2013-04-18 04:53:00,